Location: Clifton Park
(41.4873°N, 81.8024°W)
Time: 21:15:39
(UTC+00:00)

COSMOS 2455 - Pass Details

Date: 21 January 2020
Orbit: 902 x 907 km, 67.1° (Epoch: 17 February)

Event Time Altitude Azimuth Distance (km) Brightness Sun altitude
Exits shadow 11:32:33 - 233° (SW) 3,149 5.3 -14.1°
Reaches altitude 10° 11:34:11 10° 239° (WSW) 2,580 4.8 -13.8°
Maximum altitude 11:39:47 40° 308° (NW) 1,307 3.3 -12.8°
Drops below altitude 10° 11:45:25 10° 17° (NNE) 2,596 5.3 -11.8°
Sets 11:48:07 0° 25° (NNE) 3,541 6.0 -11.3°
